Le nostre stazioni meteo in Italia

Pubblicità
Il mio iltempo24.it
Fyvie castle, Gran Bretagna (99010): Temperatura & dewpoint: 02.12.2019 13:00:00 - 08.12.2019 13:00:00 (GMT)Fyvie castle, Gran Bretagna (99010): precipitazioni: 02.12.2019 13:00:00 - 08.12.2019 13:00:00 (GMT)
Data & Tempo tt [°C] td [°C] rr [mm]
08.12.2019 13:00:00 - - -
08.12.2019 12:00:00 6,3 1,4 0,0
08.12.2019 11:00:00 5,8 1,5 0,0
08.12.2019 10:00:00 5,1 0,8 0,0
08.12.2019 09:00:00 4,8 0,5 0,0
08.12.2019 08:00:00 5,5 1,2 0,0
08.12.2019 07:00:00 6,2 1,4 0,0
08.12.2019 06:00:00 6,1 1,8 0,0
08.12.2019 05:00:00 6,8 2,1 0,0
08.12.2019 04:00:00 8,2 3,2 0,0
08.12.2019 03:00:00 9,6 4,6 0,0
08.12.2019 02:00:00 11,3 6,7 0,0
08.12.2019 01:00:00 11,6 7,6 0,0
08.12.2019 00:00:00 11,0 8,3 0,0
07.12.2019 23:00:00 10,3 8,3 0,0
07.12.2019 22:00:00 10,8 8,3 0,0
07.12.2019 21:00:00 10,4 8,4 0,0
07.12.2019 20:00:00 9,6 8,3 0,0
07.12.2019 19:00:00 8,3 7,6 0,0
07.12.2019 18:00:00 7,5 7,2 0,0
07.12.2019 17:00:00 7,5 7,1 0,6
07.12.2019 16:00:00 6,8 6,7 1,0
07.12.2019 15:00:00 6,1 5,5 0,4
07.12.2019 14:00:00 6,0 5,2 0,0
07.12.2019 13:00:00 5,3 4,9 0,4
07.12.2019 12:00:00 5,1 4,9 0,4
07.12.2019 11:00:00 4,7 4,6 0,0
07.12.2019 10:00:00 4,2 3,9 0,0
07.12.2019 09:00:00 4,6 4,0 0,0
07.12.2019 08:00:00 4,1 3,8 0,0
07.12.2019 07:00:00 4,7 4,3 0,0
07.12.2019 06:00:00 4,3 4,0 0,0
07.12.2019 05:00:00 4,4 4,3 0,0
07.12.2019 04:00:00 3,6 3,6 0,0
07.12.2019 03:00:00 3,1 2,9 0,0
07.12.2019 02:00:00 4,3 3,4 0,2
07.12.2019 01:00:00 4,5 3,8 0,0
07.12.2019 00:00:00 4,9 4,1 0,0
06.12.2019 23:00:00 5,4 4,9 0,0
06.12.2019 22:00:00 6,2 5,8 0,4
06.12.2019 21:00:00 6,6 6,2 0,8
06.12.2019 20:00:00 7,3 6,8 0,6
06.12.2019 19:00:00 8,0 6,0 0,0
06.12.2019 18:00:00 7,9 5,6 0,0
06.12.2019 17:00:00 7,8 5,4 0,0
06.12.2019 16:00:00 8,1 5,7 0,0
06.12.2019 15:00:00 8,0 5,4 0,0
06.12.2019 14:00:00 9,1 6,2 0,0
06.12.2019 13:00:00 9,3 6,7 0,0
06.12.2019 12:00:00 8,5 8,5 0,0
06.12.2019 11:00:00 7,5 7,3 0,0
06.12.2019 10:00:00 8,1 8,0 1,8
06.12.2019 09:00:00 7,2 6,6 0,0
06.12.2019 08:00:00 7,5 6,9 0,0
06.12.2019 07:00:00 8,5 7,2 0,0
06.12.2019 06:00:00 9,2 7,0 0,0
06.12.2019 05:00:00 9,4 7,1 0,0
06.12.2019 04:00:00 8,9 7,3 0,0
06.12.2019 03:00:00 9,6 7,7 0,0
06.12.2019 02:00:00 7,4 7,1 0,0
06.12.2019 01:00:00 7,4 7,0 0,0
06.12.2019 00:00:00 8,5 8,0 0,0
05.12.2019 23:00:00 9,3 8,1 0,0
05.12.2019 22:00:00 9,3 8,3 0,2
05.12.2019 21:00:00 11,3 9,4 0,2
05.12.2019 20:00:00 11,5 9,6 0,0
05.12.2019 19:00:00 9,9 7,0 0,0
05.12.2019 18:00:00 8,9 6,1 0,0
05.12.2019 17:00:00 7,5 5,2 0,0
05.12.2019 16:00:00 8,0 5,2 0,0
05.12.2019 15:00:00 7,3 4,9 0,0
05.12.2019 14:00:00 7,6 4,7 0,0
05.12.2019 13:00:00 8,0 4,5 0,0
05.12.2019 12:00:00 8,0 4,4 0,0
05.12.2019 11:00:00 7,3 4,0 0,0
05.12.2019 10:00:00 6,2 3,2 0,0
05.12.2019 09:00:00 6,7 3,2 0,0
05.12.2019 08:00:00 5,3 2,4 0,0
05.12.2019 07:00:00 5,4 2,1 0,0
05.12.2019 06:00:00 5,7 1,6 0,0
05.12.2019 05:00:00 6,1 1,8 0,0
05.12.2019 04:00:00 4,5 1,0 0,0
05.12.2019 03:00:00 5,9 1,3 0,0
05.12.2019 02:00:00 4,9 1,1 0,0
05.12.2019 01:00:00 2,6 0,4 0,0
05.12.2019 00:00:00 3,4 0,0 0,0
04.12.2019 23:00:00 4,9 0,7 0,0
04.12.2019 22:00:00 3,6 0,4 0,0
04.12.2019 21:00:00 3,4 1,1 0,0
04.12.2019 20:00:00 3,7 0,4 0,0
04.12.2019 19:00:00 6,1 1,6 0,0
04.12.2019 18:00:00 3,4 1,0 0,0
04.12.2019 17:00:00 3,7 1,1 0,0
04.12.2019 16:00:00 6,5 1,9 0,0
04.12.2019 15:00:00 8,1 2,8 0,0
04.12.2019 14:00:00 9,5 5,1 0,0
04.12.2019 13:00:00 9,3 5,1 0,0
04.12.2019 12:00:00 8,7 4,8 0,0
04.12.2019 11:00:00 8,2 4,5 0,0
04.12.2019 10:00:00 8,1 4,5 0,0
04.12.2019 09:00:00 7,2 4,2 0,0
04.12.2019 08:00:00 6,5 3,9 0,0
04.12.2019 07:00:00 5,1 3,0 0,0
04.12.2019 06:00:00 5,7 3,3 0,0
04.12.2019 05:00:00 3,5 2,3 0,0
04.12.2019 04:00:00 5,2 3,6 0,2
04.12.2019 03:00:00 1,4 1,4 0,0
04.12.2019 02:00:00 0,8 0,8 0,0
04.12.2019 01:00:00 0,6 0,6 0,0
04.12.2019 00:00:00 0,6 0,6 0,0
03.12.2019 23:00:00 0,7 0,7 0,0
03.12.2019 22:00:00 0,0 0,0 0,0
03.12.2019 21:00:00 0,0 0,0 0,0
03.12.2019 20:00:00 0,1 0,1 0,0
03.12.2019 19:00:00 0,1 0,1 0,0
03.12.2019 18:00:00 0,5 0,4 0,0
03.12.2019 17:00:00 1,1 0,9 0,0
03.12.2019 16:00:00 2,6 2,3 0,0
03.12.2019 15:00:00 4,5 4,3 0,0
03.12.2019 14:00:00 5,6 5,6 0,0
03.12.2019 13:00:00 5,2 5,2 0,0
03.12.2019 12:00:00 3,7 3,7 0,0
03.12.2019 11:00:00 2,6 2,6 0,0
03.12.2019 10:00:00 1,7 1,7 0,0
03.12.2019 09:00:00 1,1 1,1 0,0
03.12.2019 08:00:00 1,1 1,0 0,0
03.12.2019 07:00:00 1,5 1,5 0,0
03.12.2019 06:00:00 2,3 2,3 0,0
03.12.2019 05:00:00 2,6 2,5 0,0
03.12.2019 04:00:00 3,8 3,8 0,0
03.12.2019 03:00:00 4,1 4,1 0,0
03.12.2019 02:00:00 4,7 4,6 0,0
03.12.2019 01:00:00 5,4 5,4 0,0
03.12.2019 00:00:00 5,0 4,9 0,0
02.12.2019 23:00:00 5,5 5,3 0,0
02.12.2019 22:00:00 6,0 5,8 0,2
02.12.2019 21:00:00 6,6 6,5 0,6
02.12.2019 20:00:00 6,1 6,0 1,0
02.12.2019 19:00:00 6,2 6,1 1,0
02.12.2019 18:00:00 5,9 5,8 1,4
02.12.2019 17:00:00 5,4 5,0 0,2
02.12.2019 16:00:00 5,7 4,9 0,0
02.12.2019 15:00:00 6,2 4,9 0,0
02.12.2019 14:00:00 6,5 5,0 0,2
02.12.2019 13:00:00 7,2 3,9 0,0

tt = Temperatura
td = dewpoint
rr = precipitazioni

Stazioni seguenti

WeatherPro
AMSI
MeteoEarth